Location: Unspecified
(0.0000°N, 0.0000°E)
Time: 18:21:02
(UTC+00:00)

STARLINK 1051 - Pass Details

Date: 18 January 2020
Orbit: 348 x 352 km, 53.0° (Epoch: 18 January)

Event Time Altitude Azimuth Distance (km) Brightness Sun altitude
Exits shadow 04:17:41 - 179° (S) 1,883 6.7 -26.2°
Reaches altitude 10° 04:19:47 10° 152° (SSE) 1,303 6.2 -25.7°
Maximum altitude 04:21:08 13° 125° (SE) 1,166 6.2 -25.4°
Drops below altitude 10° 04:22:28 10° 97° (E) 1,299 6.5 -25.1°
Sets 04:25:19 0° 65° (ENE) 2,136 7.2 -24.4°
